Terug naar catalogus

COSMOS 761

ActiefMilitairLEO
NORAD 8285·PAYLOAD·🇷🇺 Russia

Gelanceerd Sep 17, 1975 vanaf Plesetsk Cosmodrome

Loading…

Volgende Passages (komende 24 uur)

TLE

VersSource: Space-Track

Epoch: Sep 14, 2026, 12:06 UTC

1 08285U 75086A   26257.50429184 -.00000020  00000-0 -22946-4 0  9995
2 08285  74.0061 266.1144 0053376 292.8660 226.9521 12.55818405337711

Volg COSMOS 761 in realtime met AllMySat

Download on the App Store